User: anonymous   Login
Location: *
(30.0216°S, 148.7744°W)
Time: 01:19:00
(UTC+00:00)
Language:

Haruka - Orbit

View from above orbital plane
View from above orbital plane
View from above satellite
View from above satellite

Ground track
Ground track

The orbit is defined by the following mean orbital elements,

1 24720U          26107.89303675 +.00000000 +00000-0 +13472-2 0 00004
2 24720  31.3160 312.7440 5981001 164.8324 351.1842  3.84772731    00
Epoch (UTC): 17 April 2026 21:25:58
Eccentricity: 0.5981001
inclination: 31.3160°
perigee height: 536 km
apogee height: 21114 km
right ascension of ascending node: 312.7440°
argument of perigee: 164.8324°
revolutions per day: 3.84772731
mean anomaly at epoch: 351.1842°

The dashed part of the orbit path shows where the satellite is in the earth's shadow,  

DLR